UmKA 1 (RS40S)
1 57172U 23091G   26055.79648631  .00006120  00000-0  29183-3 0  9994
2 57172  97.5209 114.9554 0014131 146.9167 213.2954 15.19376126146939
CubeBel-2 (EU11S)
1 57175U 23091K   26055.79276468  .00012177  00000-0  47115-3 0  9996
2 57175  97.5202 118.1616 0011424 146.9582 213.2372 15.26292962147144
RS-38S
1 57189U 23091Z   26055.83463661  .00015608  00000-0  50344-3 0  9999
2 57189  97.5226 123.3164 0009144 111.4931 248.7286 15.32204627147462
SONATE-2
1 59112U 24043Q   26055.81860454  .00032935  00000-0  58246-3 0  9995
2 59112  97.5379 200.1414 0007869 253.5374 106.5012 15.50227844110433
MO-122
1 60209U 24125G   26055.81280848  .00040853  00000-0  66902-3 0  9994
2 60209  97.2475 271.5312 0011211 274.3556  85.6416 15.52312235 92079
GRBBeta
1 60237U 24128C   26055.55800876  .00004921  00000-0  34380-3 0  9999
2 60237  61.9890 251.1447 0052767 111.6579 249.0144 15.05603834 89303
Curium One
1 60242U 24128H   26055.51481643  .00010081  00000-0  60211-3 0  9994
2 60242  61.9778 244.2745 0052394 108.5129 252.1669 15.10482124 89423
ROBUSTA-3A
1 60243U 24128J   26054.95600723  .00007342  00000-0  45096-3 0  9994
2 60243  61.9856 248.1203 0053298 105.8446 254.8533 15.09756173 89312
CatSat
1 60246U 24125J   26055.82411189  .00040484  00000-0  77974-3 0  9991
2 60246  97.2234 267.7335 0027698 236.3451 123.5157 15.47340829 89954
HYPERVIEW-1G (RS66S)
1 61772U 24199AP  26055.58135378  .00052305  00000-0  74724-3 0  9998
2 61772  97.3114 291.3284 0008100 342.7560  17.3419 15.56058259117061
AO-123
1 61781U 24199AY  26055.56896007  .00009278  00000-0  28567-3 0  9994
2 61781  97.3178 285.2769 0014221 359.7726   0.3508 15.33758101116657
JINJUSat 1B
1 63210U 25052A   26053.68529717  .00020138  00000-0  70423-3 0  9990
2 63210  97.4136 310.5213 0005107 113.9813 246.1963 15.29557325 52572
NUSHSAT 1
1 63211U 25052B   26055.64523397  .00018877  00000-0  62733-3 0  9999
2 63211  97.4115 312.7255 0005123 111.5530 248.6257 15.31225731 52892
TEVEL2-4
1 63213U 25052D   26054.96507584  .00017585  00000-0  60215-3 0  9993
2 63213  97.4037 311.4324 0004029 121.5070 238.6564 15.30276442 52775
TEVEL2-5
1 63214U 25052E   26055.43274719  .00018475  00000-0  63426-3 0  9994
2 63214  97.4038 311.8741 0003948 121.3505 238.8123 15.30182149 52845
TEVEL2-6
1 63215U 25052F   26055.44221407  .00018882  00000-0  64899-3 0  9999
2 63215  97.4036 311.8697 0004117 121.9060 238.2581 15.30139569 52845
TEVEL2-1
1 63217U 25052H   26055.43690459  .00018204  00000-0  63361-3 0  9998
2 63217  97.4011 311.6096 0003783 131.6180 228.5385 15.29737086 52839
TEVEL2-3
1 63218U 25052J   26055.43478044  .00018352  00000-0  63807-3 0  9992
2 63218  97.4016 311.6177 0003763 131.9302 228.2259 15.29770607 52835
TEVEL2-2
1 63219U 25052K   26055.24134239  .00018948  00000-0  65943-3 0  9991
2 63219  97.4012 311.4155 0003721 133.9185 226.2363 15.29732319 52800
TEVEL2-9
1 63237U 25052AD  26055.21486815  .00017435  00000-0  63861-3 0  9995
2 63237  97.4073 310.9820 0006530 165.0072 195.1362 15.28061495 52758
TEVEL2-7
1 63238U 25052AE  26055.49929235  .00016812  00000-0  61961-3 0  9991
2 63238  97.4078 311.2207 0006687 164.0020 196.1432 15.27865242 52796
TEVEL2-8
1 63239U 25052AF  26055.50612161  .00017475  00000-0  64431-3 0  9992
2 63239  97.4077 311.2086 0006653 165.1233 195.0203 15.27843055 52794
HYDRA-W
1 63490U 25052BL  26055.23631503  .00148496  00000-0  19634-2 0  9994
2 63490  97.3955 315.8366 0007615 132.2229 227.9674 15.57799675 53099
HADES-ICM (SO-125)
1 63492U 25052BN  26055.82647029  .00106844  00000-0  16862-2 0  9992
2 63492  97.3979 315.8418 0007200 138.8968 221.2829 15.53116855 53141
RSP-03
1 65732U 98067XL  26047.27951905  .10199253  12460-4  79249-3 0  9991
2 65732  51.6061 154.7117 0006246 319.9198  40.1367 16.39378610 23558
BOTAN
1 65942U 98067XP  26055.53824427  .00823166  33099-3  14997-2 0  9994
2 65942  51.6119 119.2030 0009759  14.1330 345.9951 16.00751802 21503
CEVROSAT1
1 66309U 25248S   26055.21387292  .00005094  00000-0  25142-3 0  9992
2 66309  45.4067   6.8982 0002236 148.9655 211.1363 15.19096668 17327
SPIRONE
1 66657U 25274H   26055.74931392  .00003388  00000-0  33103-3 0  9991
2 66657  97.7428 346.7290 0013278  34.9770 325.2319 14.92974357 13449
K-HERO
1 66660U 25274L   26055.31773720  .00002313  00000-0  22509-3 0  9992
2 66660  97.7434 346.3794 0015244  39.1428 321.0892 14.93435729 13386
SNUGLITE-III DURI
1 66661U 25274M   26055.71238719  .00001951  00000-0  19016-3 0  9997
2 66661  97.7431 346.7815 0015886  38.7815 321.4541 14.93534226 13443
SilverSat
1 66909U 98067XV  26055.72173469  .00126399  00000-0  11314-2 0  9999
2 66909  51.6251 131.0565 0004747   5.5520 354.5528 15.67424786 13154
SAKHACUBE-CHOLBON
1 67290U 25313AU  26055.80291832  .00009981  00000-0  43229-3 0  9999
2 67290  97.4031 132.3835 0010229  39.1555 321.0420 15.22552515  8864
QMR-KWT
1 67291U 25313AV  26055.79530802  .00013546  00000-0  57761-3 0  9999
2 67291  97.4029 132.3933 0009844  38.3466 321.8469 15.23007914  8864
IO-86
1 40931U          25360.30710720  .00000000  00000-0  12800-3 0    00
2 40931   6.0006 332.5373 0012733 338.8432   8.1437 14.79075515    01
